Home > Weather > Idaho Falls > Past weeks

Flag for U.S.A. Weather for the Past 2 Weeks in Idaho Falls, Idaho, U.S.A.

Now
17 °F

Clear.


Feels Like: 12 °F
Forecast: 16 / 29 °F
Wind: 3 mph from Northeast

Location: Fanning Field

Current Time: Feb 10, 2016 at 9:56:37 PM

Latest Report: Feb 10, 2016 at 8:53 PM


Visibility: 10 mi

Pressure: 30.61 "Hg (25.46 "Hg at 1429m altitude)

Humidity: 83%

Dew point: 13 °F

Location of Idaho FallsLocation

Historic Weather in Idaho Falls — Graph

°F

Idaho Falls Temperature Yesterday

Maximum temperature yesterday: 28 °F (at 2:00 PM)
Minimum temperature yesterday: 4 °F (at 6:55 AM)
Average temperature yesterday: 17 °F

High & Low Weather Summary for the Past Weeks

 TemperatureHumidityPressure
High38 °F (Jan 29, 7:53 PM)100% (Jan 29, 11:53 PM)30.89 "Hg (Jan 29, 11:53 PM)
Low2 °F (Jan 28, 8:53 AM)64% (Feb 1, 6:53 PM)29.74 "Hg (Jan 29, 7:53 PM)
Average18 °F87%30.42 "Hg
* Reported Jan 26 7:53 PM — Feb 10 7:53 PM, Idaho Falls, Weather by CustomWeather, © 2016

Note: Actual official high and low records may vary slightly from our data, if they occured in-between our weather recording intervals... More about our weather records

Advertising

Idaho Falls Weather History for the Previous 24 Hours

 ConditionsComfort  
Time TempWeatherWind HumidityBarometerVisibility
7:53 PM
Wed, Feb 10
18 °FClear.5 mph84%30.60 "Hg10 mi
6:53 PM17 °FClear.3 mph88%30.62 "Hg10 mi
5:53 PM22 °FSunny.No wind82%30.62 "Hg10 mi
4:53 PM21 °FScattered clouds.3 mph85%30.61 "Hg10 mi
3:53 PM25 °FSunny.6 mph85%30.57 "Hg10 mi
2:53 PM27 °FScattered clouds.3 mph81%30.56 "Hg10 mi
10:53 AM18 °FPartly sunny.7 mph92%30.63 "Hg10 mi
9:53 AM11 °FPartly sunny.8 mph88%30.65 "Hg10 mi
8:53 AM8 °FBroken clouds.7 mph87%30.65 "Hg8 mi
7:53 AM7 °FFog.5 mph87%30.65 "Hg1 mi
6:56 AM5 °FFog.5 mph80%30.42 "Hg5 mi
6:02 AM4 °FPassing clouds.8 mph88%30.42 "Hg10 mi
5:53 AM5 °FPassing clouds.6 mph83%30.63 "Hg10 mi
4:53 AM6 °FPassing clouds.9 mph83%30.61 "Hg10 mi
3:53 AM10 °FPassing clouds.6 mph84%30.59 "Hg10 mi
2:53 AM10 °FPassing clouds.8 mph88%30.59 "Hg10 mi
1:53 AM11 °FIce fog.7 mph88%30.58 "Hg1 mi
12:53 AM13 °FIce fog.6 mph88%30.60 "Hg1 mi
11:53 PM
Tue, Feb 9
14 °FIce fog.3 mph87%30.62 "Hg1 mi
10:53 PM16 °FIce fog.10 mph92%30.62 "Hg0 mi
9:53 PM16 °FIce fog.No wind92%30.65 "Hg0 mi
9:02 PM15 °FIce fog.8 mph87%30.46 "Hg1 mi
Weather by CustomWeather, © 2016

See weather overviewHow to use our weather pages